RYR91FR LIMC-LGTS

Flight info

Callsign RYR91FR
Flight time 1h 39m
Altitude 38000
Route OSKOR6P OSKOR DCT NEVNI DCT NOBMI DCT ADOSA DCT VIC/N0445F390 DCT AKADO DCT IXONA DCT SPL DCT GEBNI DCT MAVAR N130 ALIKO ALIKO1L
Aircraft B738/M-SDE2E3FGHIRWXY/LB1

Departure

Time 2026-05-05 11:15
Airport Milan Malpensa International Airport (LIMC)

Arrival

Time 2026-05-05 12:54
Airport Thessaloniki Macedonia International Airport (LGTS)
Time Latitude Longitude Altitude Speed Heading
2026-05-05 10:39 45.62536 8.71971 740 ft 0 kts 79°
2026-05-05 11:03 45.62537 8.71976 739 ft 2 kts 79°
2026-05-05 11:03 45.62539 8.71997 740 ft 2 kts 79°
2026-05-05 11:03 45.62542 8.72018 738 ft 2 kts 79°
2026-05-05 11:03 45.62543 8.72039 740 ft 2 kts 105°
2026-05-05 11:04 45.62533 8.72059 739 ft 3 kts 136°
2026-05-05 11:04 45.62517 8.72069 740 ft 0 kts 165°
2026-05-05 11:07 45.62516 8.72069 740 ft 1 kts 165°
2026-05-05 11:08 45.62497 8.72076 740 ft 6 kts 167°
2026-05-05 11:08 45.62433 8.72094 740 ft 13 kts 169°
2026-05-05 11:08 45.62328 8.72121 740 ft 17 kts 170°
2026-05-05 11:08 45.62247 8.72141 740 ft 7 kts 170°
2026-05-05 11:09 45.62208 8.72169 740 ft 6 kts 126°
2026-05-05 11:09 45.62208 8.72230 740 ft 6 kts 78°
2026-05-05 11:09 45.62217 8.72291 740 ft 7 kts 77°
2026-05-05 11:09 45.62232 8.72384 740 ft 14 kts 78°
2026-05-05 11:10 45.62255 8.72554 739 ft 20 kts 79°
2026-05-05 11:10 45.62282 8.72752 739 ft 20 kts 79°
2026-05-05 11:10 45.62303 8.72911 741 ft 10 kts 78°
2026-05-05 11:10 45.62299 8.73009 741 ft 10 kts 124°
2026-05-05 11:11 45.62234 8.73041 741 ft 10 kts 169°
2026-05-05 11:11 45.62134 8.73067 739 ft 20 kts 169°
2026-05-05 11:11 45.61965 8.73113 741 ft 28 kts 169°
2026-05-05 11:11 45.61794 8.73162 740 ft 21 kts 165°
2026-05-05 11:12 45.61689 8.73294 741 ft 20 kts 124°
2026-05-05 11:12 45.61620 8.73466 740 ft 20 kts 124°
2026-05-05 11:12 45.61588 8.73623 741 ft 14 kts 83°
2026-05-05 11:12 45.61638 8.73731 741 ft 14 kts 14°
2026-05-05 11:13 45.61668 8.73728 739 ft 0 kts 349°
2026-05-05 11:14 45.61855 8.73675 739 ft 68 kts 348°
2026-05-05 11:14 45.62580 8.73473 742 ft 142 kts 349°
2026-05-05 11:14 45.63666 8.73174 1203 ft 168 kts 349°
2026-05-05 11:15 45.64851 8.72831 2112 ft 177 kts 349°
2026-05-05 11:15 45.66113 8.72663 2851 ft 195 kts
2026-05-05 11:15 45.67389 8.73494 3244 ft 211 kts 48°
2026-05-05 11:15 45.68109 8.75274 4037 ft 207 kts 66°
2026-05-05 11:16 45.68805 8.77119 4689 ft 218 kts 60°
2026-05-05 11:16 45.69700 8.78851 5737 ft 215 kts 55°
2026-05-05 11:16 45.70676 8.80604 6338 ft 236 kts 54°
2026-05-05 11:16 45.71737 8.82491 7081 ft 248 kts 58°
2026-05-05 11:17 45.72396 8.84750 7990 ft 246 kts 88°
2026-05-05 11:17 45.72157 8.87166 8692 ft 253 kts 117°
2026-05-05 11:17 45.71016 8.89013 9500 ft 248 kts 148°
2026-05-05 11:17 45.69438 8.89985 9892 ft 248 kts 175°
2026-05-05 11:18 45.67735 8.90138 10042 ft 245 kts 179°
2026-05-05 11:18 45.66073 8.90259 10071 ft 240 kts 179°
2026-05-05 11:18 45.64396 8.90551 10114 ft 257 kts 162°
2026-05-05 11:18 45.62858 8.92134 10244 ft 295 kts 131°
2026-05-05 11:19 45.61898 8.94900 10333 ft 330 kts 108°
2026-05-05 11:19 45.61578 8.98219 10389 ft 342 kts 94°
2026-05-05 11:19 45.61648 9.01645 10727 ft 347 kts 89°
2026-05-05 11:19 45.61833 9.05118 11441 ft 352 kts 88°
2026-05-05 11:20 45.62029 9.08601 12255 ft 355 kts 88°
2026-05-05 11:20 45.62208 9.12137 13029 ft 359 kts 89°
2026-05-05 11:20 45.62362 9.15672 13771 ft 364 kts 90°
2026-05-05 11:20 45.62499 9.19304 14475 ft 369 kts 90°
2026-05-05 11:21 45.62624 9.22981 15162 ft 373 kts 90°
2026-05-05 11:21 45.62741 9.26697 15842 ft 377 kts 91°
2026-05-05 11:21 45.62853 9.30463 16613 ft 381 kts 91°
2026-05-05 11:21 45.62963 9.34269 17286 ft 386 kts 91°
2026-05-05 11:22 45.63072 9.38119 17958 ft 390 kts 91°
2026-05-05 11:22 45.63180 9.42015 18596 ft 394 kts 91°
2026-05-05 11:22 45.63288 9.45944 19188 ft 398 kts 91°
2026-05-05 11:22 45.63394 9.49854 19779 ft 401 kts 91°
2026-05-05 11:23 45.63501 9.53843 20384 ft 404 kts 91°
2026-05-05 11:23 45.63608 9.57874 20976 ft 407 kts 92°
2026-05-05 11:23 45.63713 9.61930 21428 ft 411 kts 92°
2026-05-05 11:23 45.63819 9.66022 21982 ft 414 kts 92°
2026-05-05 11:24 45.63924 9.70150 22548 ft 417 kts 92°
2026-05-05 11:24 45.64028 9.74313 23109 ft 421 kts 92°
2026-05-05 11:24 45.64132 9.78509 23638 ft 424 kts 92°
2026-05-05 11:24 45.64234 9.82737 24067 ft 427 kts 92°
2026-05-05 11:25 45.64335 9.86940 24494 ft 431 kts 92°
2026-05-05 11:25 45.64437 9.91232 24928 ft 434 kts 92°
2026-05-05 11:25 45.64537 9.95548 25335 ft 437 kts 92°
2026-05-05 11:25 45.64637 9.99904 25731 ft 440 kts 92°
2026-05-05 11:26 45.64737 10.04292 26134 ft 443 kts 92°
2026-05-05 11:26 45.64835 10.08705 26567 ft 446 kts 92°
2026-05-05 11:26 45.64926 10.13146 27013 ft 448 kts 92°
2026-05-05 11:26 45.64944 10.17604 27439 ft 450 kts 94°
2026-05-05 11:27 45.64916 10.22092 27850 ft 453 kts 94°
2026-05-05 11:27 45.64878 10.26555 28248 ft 456 kts 94°
2026-05-05 11:27 45.64843 10.31092 28659 ft 458 kts 94°
2026-05-05 11:27 45.64822 10.35653 29060 ft 461 kts 94°
2026-05-05 11:28 45.64806 10.40252 29408 ft 464 kts 94°
2026-05-05 11:28 45.64793 10.44875 29779 ft 466 kts 93°
2026-05-05 11:28 45.64793 10.49519 30145 ft 469 kts 93°
2026-05-05 11:28 45.64789 10.54188 30444 ft 471 kts 94°
2026-05-05 11:29 45.64765 10.58880 30708 ft 474 kts 94°
2026-05-05 11:29 45.64731 10.63591 30952 ft 476 kts 94°
2026-05-05 11:29 45.64694 10.68279 31211 ft 478 kts 94°
2026-05-05 11:29 45.64655 10.73038 31467 ft 481 kts 94°
2026-05-05 11:30 45.64617 10.77822 31745 ft 483 kts 94°
2026-05-05 11:30 45.64579 10.82628 32076 ft 483 kts 94°
2026-05-05 11:30 45.64539 10.87425 32452 ft 482 kts 94°
2026-05-05 11:30 45.64498 10.92217 32767 ft 483 kts 93°
2026-05-05 11:31 45.64455 10.97024 33030 ft 484 kts 94°
2026-05-05 11:31 45.64408 11.01840 33329 ft 485 kts 94°
2026-05-05 11:31 45.64363 11.06662 33652 ft 485 kts 93°
2026-05-05 11:31 45.64321 11.11409 33937 ft 486 kts 93°
2026-05-05 11:32 45.64279 11.16240 34225 ft 486 kts 93°
2026-05-05 11:32 45.64235 11.21066 34537 ft 486 kts 93°
2026-05-05 11:32 45.64190 11.25884 34867 ft 485 kts 93°
2026-05-05 11:32 45.64142 11.30700 35170 ft 484 kts 93°
2026-05-05 11:33 45.64091 11.35512 35457 ft 484 kts 93°
2026-05-05 11:33 45.64038 11.40326 35703 ft 484 kts 93°
2026-05-05 11:33 45.63983 11.45136 35961 ft 484 kts 93°
2026-05-05 11:33 45.63927 11.49867 36240 ft 483 kts 93°
2026-05-05 11:34 45.63869 11.54660 36546 ft 482 kts 93°
2026-05-05 11:34 45.63809 11.59447 36869 ft 482 kts 93°
2026-05-05 11:34 45.63592 11.64220 37120 ft 480 kts 101°
2026-05-05 11:34 45.62890 11.68862 37396 ft 477 kts 109°
2026-05-05 11:35 45.61753 11.73282 37692 ft 473 kts 119°
2026-05-05 11:35 45.60253 11.77461 37988 ft 472 kts 121°
2026-05-05 11:35 45.58697 11.81611 38015 ft 477 kts 121°
2026-05-05 11:36 45.55571 11.89914 37995 ft 477 kts 121°
2026-05-05 11:36 45.52505 11.98194 38004 ft 468 kts 120°
2026-05-05 11:37 45.49485 12.06403 38015 ft 467 kts 120°
2026-05-05 11:37 45.46468 12.14587 38036 ft 467 kts 120°
2026-05-05 11:38 45.43447 12.22749 38024 ft 470 kts 120°
2026-05-05 11:38 45.40385 12.30999 38011 ft 472 kts 120°
2026-05-05 11:39 45.37830 12.37864 38014 ft 473 kts 120°
2026-05-05 11:39 45.34224 12.47528 38013 ft 472 kts 120°
2026-05-05 11:40 45.30905 12.55542 38018 ft 470 kts 125°
2026-05-05 11:40 45.27339 12.63221 38022 ft 468 kts 126°
2026-05-05 11:41 45.23742 12.70918 38024 ft 468 kts 126°
2026-05-05 11:41 45.20164 12.78651 37994 ft 469 kts 126°
2026-05-05 11:42 45.16603 12.86378 38003 ft 467 kts 126°
2026-05-05 11:42 45.13073 12.94022 38012 ft 466 kts 126°
2026-05-05 11:43 45.10119 13.00399 38016 ft 466 kts 126°
2026-05-05 11:43 45.05958 13.09354 38013 ft 466 kts 126°
2026-05-05 11:44 45.02415 13.16958 38016 ft 466 kts 126°
2026-05-05 11:44 44.98839 13.24613 38020 ft 467 kts 126°
2026-05-05 11:45 44.95249 13.32278 38029 ft 468 kts 126°
2026-05-05 11:45 44.91647 13.39947 38021 ft 469 kts 126°
2026-05-05 11:46 44.88033 13.47625 38032 ft 470 kts 126°
2026-05-05 11:46 44.84433 13.55252 38038 ft 471 kts 126°
2026-05-05 11:47 44.80815 13.62959 38048 ft 472 kts 126°
2026-05-05 11:47 44.77206 13.70674 38051 ft 472 kts 126°
2026-05-05 11:48 44.71781 13.82228 38048 ft 472 kts 126°
2026-05-05 11:48 44.68181 13.89863 38065 ft 472 kts 126°
2026-05-05 11:49 44.64541 13.97560 38030 ft 473 kts 126°
2026-05-05 11:49 44.60902 14.05235 38078 ft 472 kts 126°
2026-05-05 11:50 44.59085 14.09061 38231 ft 472 kts 126°
2026-05-05 11:50 44.57261 14.12894 38355 ft 473 kts 126°
2026-05-05 11:50 44.55456 14.16683 38516 ft 474 kts 126°
2026-05-05 11:50 44.53620 14.20531 38649 ft 476 kts 126°
2026-05-05 11:51 44.51779 14.24385 38770 ft 477 kts 126°
2026-05-05 11:51 44.49933 14.28246 38885 ft 477 kts 126°
2026-05-05 11:51 44.46252 14.35929 39028 ft 474 kts 126°
2026-05-05 11:52 44.42567 14.43599 39051 ft 476 kts 126°
2026-05-05 11:52 44.38880 14.51250 39054 ft 479 kts 126°
2026-05-05 11:53 44.35150 14.58971 39053 ft 480 kts 126°
2026-05-05 11:53 44.31409 14.66697 39046 ft 480 kts 126°
2026-05-05 11:54 44.27659 14.74419 39051 ft 480 kts 126°
2026-05-05 11:54 44.23906 14.82127 39050 ft 480 kts 127°
2026-05-05 11:55 44.20180 14.89760 39055 ft 479 kts 127°
2026-05-05 11:55 44.16429 14.97424 39061 ft 478 kts 127°
2026-05-05 11:56 44.12679 15.05064 39058 ft 477 kts 127°
2026-05-05 11:56 44.08929 15.12685 39070 ft 477 kts 127°
2026-05-05 11:57 44.05204 15.20235 39068 ft 477 kts 127°
2026-05-05 11:57 44.01448 15.27828 39073 ft 477 kts 127°
2026-05-05 11:58 43.97688 15.35411 39071 ft 477 kts 127°
2026-05-05 11:58 43.93924 15.42980 39072 ft 476 kts 127°
2026-05-05 11:59 43.90153 15.50544 39073 ft 477 kts 127°
2026-05-05 11:59 43.86401 15.58052 39073 ft 477 kts 127°
2026-05-05 12:00 43.82615 15.65607 39066 ft 478 kts 127°
2026-05-05 12:00 43.78816 15.73169 39069 ft 479 kts 127°
2026-05-05 12:01 43.75028 15.80690 39074 ft 479 kts 127°
2026-05-05 12:01 43.71850 15.86985 39067 ft 480 kts 127°
2026-05-05 12:02 43.68018 15.94558 39079 ft 481 kts 127°
2026-05-05 12:02 43.64175 16.02133 39094 ft 481 kts 128°
2026-05-05 12:03 43.60316 16.09720 39101 ft 483 kts 128°
2026-05-05 12:03 43.56434 16.17334 39102 ft 486 kts 128°
2026-05-05 12:04 43.52555 16.24925 39104 ft 487 kts 128°
2026-05-05 12:04 43.48786 16.32694 39089 ft 488 kts 120°
2026-05-05 12:05 43.45692 16.41011 39091 ft 488 kts 118°
2026-05-05 12:05 43.42691 16.49326 39087 ft 486 kts 118°
2026-05-05 12:06 43.39643 16.57646 39084 ft 485 kts 119°
2026-05-05 12:06 43.36591 16.65856 39092 ft 484 kts 119°
2026-05-05 12:07 43.33509 16.74098 39080 ft 484 kts 119°
2026-05-05 12:07 43.30421 16.82330 39088 ft 484 kts 119°
2026-05-05 12:08 43.27333 16.90544 39090 ft 485 kts 119°
2026-05-05 12:08 43.24235 16.98764 39089 ft 485 kts 119°
2026-05-05 12:09 43.21126 17.06987 39098 ft 485 kts 119°
2026-05-05 12:09 43.18029 17.15157 39103 ft 486 kts 119°
2026-05-05 12:10 43.14901 17.23383 39105 ft 487 kts 119°
2026-05-05 12:10 43.11760 17.31620 39107 ft 488 kts 120°
2026-05-05 12:11 43.08623 17.39822 39097 ft 489 kts 120°
2026-05-05 12:11 43.05452 17.48090 39108 ft 490 kts 120°
2026-05-05 12:12 43.02272 17.56358 39093 ft 490 kts 120°
2026-05-05 12:12 42.99090 17.64607 39106 ft 490 kts 120°
2026-05-05 12:13 42.95902 17.72846 39093 ft 491 kts 120°
2026-05-05 12:13 42.92707 17.81080 39099 ft 491 kts 120°
2026-05-05 12:14 42.89524 17.89262 39101 ft 491 kts 120°
2026-05-05 12:14 42.86314 17.97490 39098 ft 490 kts 120°
2026-05-05 12:15 42.83105 18.05694 39109 ft 490 kts 120°
2026-05-05 12:15 42.79876 18.13884 39115 ft 490 kts 121°
2026-05-05 12:16 42.76370 18.21833 39115 ft 490 kts 124°
2026-05-05 12:16 42.72739 18.29642 39116 ft 491 kts 124°
2026-05-05 12:17 42.69100 18.37495 39133 ft 491 kts 124°
2026-05-05 12:17 42.65471 18.45395 39132 ft 492 kts 124°
2026-05-05 12:18 42.61872 18.53246 39119 ft 493 kts 124°
2026-05-05 12:18 42.58243 18.61143 39125 ft 493 kts 124°
2026-05-05 12:19 42.54599 18.69048 39118 ft 493 kts 124°
2026-05-05 12:19 42.50975 18.76885 39131 ft 494 kts 124°
2026-05-05 12:20 42.47315 18.84780 39116 ft 494 kts 124°
2026-05-05 12:20 42.43641 18.92683 39123 ft 494 kts 124°
2026-05-05 12:21 42.39993 19.00511 39110 ft 494 kts 124°
2026-05-05 12:21 42.36316 19.08380 39112 ft 494 kts 124°
2026-05-05 12:22 42.32629 19.16250 39109 ft 495 kts 124°
2026-05-05 12:22 42.28951 19.24079 39095 ft 495 kts 124°
2026-05-05 12:23 42.25251 19.31936 39103 ft 495 kts 124°
2026-05-05 12:23 42.21539 19.39797 39112 ft 495 kts 124°
2026-05-05 12:24 42.17852 19.47584 39112 ft 496 kts 124°
2026-05-05 12:24 42.14134 19.55415 39116 ft 496 kts 124°
2026-05-05 12:25 42.10401 19.63260 39120 ft 497 kts 124°
2026-05-05 12:25 42.06661 19.71098 39116 ft 497 kts 124°
2026-05-05 12:26 42.02934 19.78888 39102 ft 498 kts 124°
2026-05-05 12:26 41.99176 19.86723 39115 ft 498 kts 124°
2026-05-05 12:27 41.95409 19.94556 39114 ft 499 kts 124°
2026-05-05 12:27 41.91638 20.02379 39120 ft 499 kts 124°
2026-05-05 12:28 41.87855 20.10205 39104 ft 500 kts 124°
2026-05-05 12:28 41.84072 20.18010 39113 ft 502 kts 124°
2026-05-05 12:29 41.80254 20.25869 39098 ft 503 kts 124°
2026-05-05 12:29 41.76427 20.33725 39083 ft 502 kts 124°
2026-05-05 12:30 41.72596 20.41571 39095 ft 503 kts 124°
2026-05-05 12:30 41.68782 20.49365 39094 ft 505 kts 124°
2026-05-05 12:31 41.65087 20.57277 38976 ft 494 kts 120°
2026-05-05 12:31 41.63402 20.61266 38532 ft 489 kts 119°
2026-05-05 12:31 41.61758 20.65262 37883 ft 490 kts 118°
2026-05-05 12:32 41.60119 20.69263 37099 ft 493 kts 118°
2026-05-05 12:32 41.58462 20.73286 36315 ft 497 kts 118°
2026-05-05 12:32 41.56782 20.77329 35577 ft 500 kts 118°
2026-05-05 12:32 41.55081 20.81389 34908 ft 501 kts 118°
2026-05-05 12:33 41.53365 20.85464 34283 ft 501 kts 118°
2026-05-05 12:33 41.51657 20.89506 33810 ft 497 kts 118°
2026-05-05 12:33 41.49977 20.93472 33403 ft 491 kts 117°
2026-05-05 12:33 41.48304 20.97413 32948 ft 486 kts 118°
2026-05-05 12:34 41.46642 21.01326 32461 ft 482 kts 118°
2026-05-05 12:34 41.45012 21.05163 31977 ft 479 kts 117°
2026-05-05 12:34 41.43399 21.09060 31519 ft 476 kts 115°
2026-05-05 12:34 41.41920 21.12985 31081 ft 472 kts 113°
2026-05-05 12:35 41.40512 21.16919 30615 ft 469 kts 112°
2026-05-05 12:35 41.39130 21.20847 30165 ft 466 kts 112°
2026-05-05 12:35 41.37757 21.24741 29722 ft 461 kts 113°
2026-05-05 12:35 41.36393 21.28575 29366 ft 455 kts 113°
2026-05-05 12:36 41.35034 21.32351 28900 ft 450 kts 113°
2026-05-05 12:36 41.33697 21.36037 28421 ft 447 kts 113°
2026-05-05 12:36 41.32347 21.39738 27969 ft 442 kts 113°
2026-05-05 12:36 41.31004 21.43410 27537 ft 438 kts 113°
2026-05-05 12:37 41.29675 21.47034 27112 ft 434 kts 113°
2026-05-05 12:37 41.28358 21.50622 26692 ft 430 kts 113°
2026-05-05 12:37 41.27049 21.54188 26283 ft 426 kts 114°
2026-05-05 12:37 41.25756 21.57704 25889 ft 422 kts 114°
2026-05-05 12:38 41.24471 21.61195 25501 ft 418 kts 114°
2026-05-05 12:38 41.23197 21.64652 25109 ft 414 kts 113°
2026-05-05 12:38 41.21934 21.68076 24722 ft 411 kts 114°
2026-05-05 12:38 41.20682 21.71467 24316 ft 407 kts 114°
2026-05-05 12:39 41.19454 21.74790 23935 ft 405 kts 114°
2026-05-05 12:39 41.18219 21.78126 23555 ft 401 kts 114°
2026-05-05 12:39 41.16992 21.81436 23076 ft 398 kts 114°
2026-05-05 12:39 41.15774 21.84719 22680 ft 394 kts 114°
2026-05-05 12:40 41.14567 21.87971 22137 ft 393 kts 114°
2026-05-05 12:40 41.13340 21.91278 21005 ft 407 kts 114°
2026-05-05 12:40 41.12066 21.94709 20024 ft 418 kts 114°
2026-05-05 12:40 41.10780 21.98161 19413 ft 415 kts 114°
2026-05-05 12:41 41.09509 22.01559 18936 ft 409 kts 114°
2026-05-05 12:41 41.08263 22.04888 18432 ft 404 kts 114°
2026-05-05 12:41 41.07021 22.08206 17840 ft 401 kts 114°
2026-05-05 12:41 41.05786 22.11500 17254 ft 397 kts 114°
2026-05-05 12:42 41.04561 22.14770 16714 ft 393 kts 114°
2026-05-05 12:42 41.03350 22.17996 16154 ft 389 kts 114°
2026-05-05 12:42 41.02149 22.21192 15647 ft 386 kts 114°
2026-05-05 12:42 41.00957 22.24359 15118 ft 382 kts 114°
2026-05-05 12:43 40.99776 22.27499 14604 ft 379 kts 114°
2026-05-05 12:43 40.98604 22.30610 14117 ft 376 kts 114°
2026-05-05 12:43 40.97456 22.33659 13617 ft 373 kts 114°
2026-05-05 12:43 40.96298 22.36723 13097 ft 369 kts 115°
2026-05-05 12:44 40.95153 22.39750 12576 ft 366 kts 115°
2026-05-05 12:44 40.94017 22.42749 12062 ft 363 kts 115°
2026-05-05 12:44 40.92893 22.45716 11587 ft 359 kts 115°
2026-05-05 12:44 40.91778 22.48658 11096 ft 356 kts 115°
2026-05-05 12:45 40.90686 22.51532 10895 ft 339 kts 116°
2026-05-05 12:45 40.89659 22.54231 10747 ft 318 kts 116°
2026-05-05 12:45 40.88696 22.56761 10615 ft 299 kts 115°
2026-05-05 12:45 40.87788 22.59147 10410 ft 288 kts 115°
2026-05-05 12:46 40.86909 22.61454 10302 ft 276 kts 115°
2026-05-05 12:46 40.86054 22.63699 10099 ft 272 kts 115°
2026-05-05 12:46 40.85200 22.65942 9561 ft 274 kts 115°
2026-05-05 12:46 40.84340 22.68195 9051 ft 274 kts 115°
2026-05-05 12:47 40.83637 22.70036 8639 ft 274 kts 115°
2026-05-05 12:47 40.82777 22.72287 8136 ft 275 kts 115°
2026-05-05 12:47 40.81916 22.74539 7640 ft 275 kts 115°
2026-05-05 12:47 40.81058 22.76782 7151 ft 275 kts 115°
2026-05-05 12:48 40.80196 22.79031 6667 ft 274 kts 115°
2026-05-05 12:48 40.79334 22.81276 6186 ft 274 kts 116°
2026-05-05 12:48 40.78473 22.83522 5684 ft 274 kts 116°
2026-05-05 12:48 40.77609 22.85768 5174 ft 275 kts 116°
2026-05-05 12:49 40.76740 22.88007 4684 ft 274 kts 120°
2026-05-05 12:49 40.75482 22.89825 4316 ft 267 kts 153°
2026-05-05 12:49 40.73731 22.90434 4011 ft 259 kts 177°
2026-05-05 12:49 40.71986 22.90737 3754 ft 249 kts 171°
2026-05-05 12:50 40.70301 22.91231 3436 ft 247 kts 168°
2026-05-05 12:50 40.68656 22.91768 3099 ft 238 kts 167°
2026-05-05 12:50 40.67613 22.92117 2911 ft 228 kts 168°
2026-05-05 12:50 40.66101 22.92593 2615 ft 219 kts 169°
2026-05-05 12:51 40.64647 22.93051 2338 ft 211 kts 168°
2026-05-05 12:51 40.62808 22.93641 2001 ft 198 kts 168°
2026-05-05 12:51 40.61919 22.93924 1806 ft 192 kts 168°
2026-05-05 12:51 40.60263 22.94450 1479 ft 180 kts 169°
2026-05-05 12:52 40.59456 22.94707 1339 ft 174 kts 169°
2026-05-05 12:52 40.58312 22.95076 1121 ft 164 kts 168°
2026-05-05 12:52 40.57257 22.95434 978 ft 148 kts 167°
2026-05-05 12:52 40.56287 22.95756 625 ft 138 kts 169°
2026-05-05 12:53 40.55382 22.96048 468 ft 138 kts 168°
2026-05-05 12:53 40.54432 22.96336 336 ft 141 kts 172°
2026-05-05 12:53 40.53489 22.96616 167 ft 138 kts 170°
2026-05-05 12:53 40.52567 22.96921 27 ft 130 kts 169°
2026-05-05 12:54 40.51516 22.97275 29 ft 17 kts 103°
2026-05-05 12:54 40.51513 22.97298 29 ft 0 kts 96°
2026-05-05 12:54 40.51511 22.97320 26 ft 6 kts 92°
2026-05-05 12:55 40.51534 22.97394 26 ft 12 kts 34°
2026-05-05 12:55 40.51627 22.97390 27 ft 15 kts 348°
2026-05-05 12:55 40.51735 22.97356 28 ft 17 kts 345°
2026-05-05 12:55 40.51842 22.97319 24 ft 10 kts 346°
2026-05-05 12:56 40.51915 22.97349 23 ft 13 kts 62°
2026-05-05 12:56 40.51903 22.97472 26 ft 14 kts 99°
2026-05-05 12:56 40.51939 22.97582 27 ft 13 kts 55°
2026-05-05 12:56 40.51991 22.97680 27 ft 13 kts 49°
2026-05-05 12:57 40.52044 22.97747 25 ft 7 kts 34°
2026-05-05 12:57 40.52088 22.97727 27 ft 7 kts 317°
2026-05-05 12:57 40.52126 22.97681 25 ft 8 kts 317°
2026-05-05 12:57 40.52169 22.97642 26 ft 5 kts 329°
2026-05-05 12:58 40.52191 22.97618 26 ft 3 kts 321°
2026-05-05 12:58 40.52201 22.97619 26 ft 1 kts 34°
2026-05-05 12:58 40.52206 22.97628 25 ft 1 kts 51°
2026-05-05 12:58 40.52219 22.97647 27 ft 5 kts 45°
2026-05-05 12:59 40.52233 22.97666 25 ft 2 kts 44°
2026-05-05 12:59 40.52240 22.97674 28 ft 0 kts 44°
2026-05-05 12:59 40.52243 22.97679 27 ft 1 kts 44°
2026-05-05 13:00 40.52247 22.97683 26 ft 0 kts 45°